EWG4PW EDDL-EDXW

Flight info

Callsign EWG4PW
Flight time N/A
Altitude 31000
Route MEVEL1Z MEVEL L179 OSNAD M170 ELSOB Y348 OMWEG DCT BADOS DCT OLDIP
Aircraft A319/M-SDE3FGHIRWY/LB1

Departure

Time N/A
Airport Düsseldorf Airport (EDDL)

Arrival

Time 2026-04-24 19:10
Airport Westerland Sylt Airport (EDXW)
Time Latitude Longitude Altitude Speed Heading
2026-04-24 18:54 53.96887 8.42121 15273 ft 348 kts
2026-04-24 18:55 54.01662 8.42611 14346 ft 342 kts
2026-04-24 18:55 54.04036 8.42851 13870 ft 339 kts
2026-04-24 18:55 54.06361 8.43088 13349 ft 336 kts
2026-04-24 18:56 54.08698 8.43327 12838 ft 332 kts
2026-04-24 18:56 54.11003 8.43565 12328 ft 329 kts
2026-04-24 18:56 54.13257 8.43798 11831 ft 326 kts
2026-04-24 18:56 54.15516 8.44032 11328 ft 323 kts
2026-04-24 18:57 54.17739 8.44262 11053 ft 313 kts
2026-04-24 18:57 54.19839 8.44481 10930 ft 299 kts 360°
2026-04-24 18:57 54.21882 8.44694 10806 ft 287 kts 360°
2026-04-24 18:57 54.23841 8.44899 10665 ft 276 kts 360°
2026-04-24 18:58 54.25718 8.45091 10381 ft 272 kts 359°
2026-04-24 18:58 54.27603 8.45280 10044 ft 269 kts 359°
2026-04-24 18:58 54.29467 8.45469 9657 ft 268 kts 359°
2026-04-24 18:58 54.31308 8.45661 9258 ft 266 kts 360°
2026-04-24 18:59 54.33157 8.45855 8853 ft 265 kts 360°
2026-04-24 18:59 54.34995 8.46047 8448 ft 263 kts
2026-04-24 18:59 54.36826 8.46237 8042 ft 262 kts 360°
2026-04-24 18:59 54.38651 8.46426 7643 ft 260 kts
2026-04-24 19:00 54.40436 8.46610 7260 ft 259 kts
2026-04-24 19:00 54.42227 8.46795 7159 ft 258 kts
2026-04-24 19:00 54.44025 8.46980 7154 ft 259 kts
2026-04-24 19:00 54.45814 8.47163 6798 ft 256 kts
2026-04-24 19:01 54.47592 8.47346 6358 ft 255 kts
2026-04-24 19:01 54.49339 8.47529 5941 ft 253 kts
2026-04-24 19:01 54.51095 8.47713 5517 ft 251 kts 360°
2026-04-24 19:01 54.52840 8.47898 5095 ft 249 kts 360°
2026-04-24 19:02 54.53987 8.48019 4819 ft 248 kts 359°
2026-04-24 19:02 54.56263 8.48257 4267 ft 244 kts 360°
2026-04-24 19:02 54.57943 8.48432 3849 ft 242 kts 360°
2026-04-24 19:02 54.59621 8.48608 3423 ft 240 kts 360°
2026-04-24 19:03 54.61283 8.48785 3047 ft 236 kts
2026-04-24 19:03 54.62920 8.48957 2999 ft 236 kts
2026-04-24 19:03 54.64547 8.49128 3000 ft 232 kts
2026-04-24 19:03 54.66097 8.49295 2998 ft 214 kts 360°
2026-04-24 19:04 54.67557 8.49451 3006 ft 208 kts 359°
2026-04-24 19:04 54.68978 8.49601 3006 ft 207 kts 360°
2026-04-24 19:04 54.70424 8.49748 3005 ft 207 kts 359°
2026-04-24 19:04 54.71865 8.49896 3003 ft 207 kts 360°
2026-04-24 19:05 54.73273 8.50042 3005 ft 199 kts 360°
2026-04-24 19:05 54.74622 8.50185 3006 ft 191 kts 359°
2026-04-24 19:05 54.75499 8.50278 3002 ft 188 kts 359°
2026-04-24 19:05 54.76756 8.50412 3009 ft 174 kts 359°
2026-04-24 19:06 54.78256 8.50057 2961 ft 157 kts 335°
2026-04-24 19:06 54.78872 8.49418 2873 ft 154 kts 324°
2026-04-24 19:06 54.79743 8.48345 2697 ft 152 kts 325°
2026-04-24 19:06 54.80592 8.47301 2507 ft 150 kts 325°
2026-04-24 19:07 54.81441 8.46256 2305 ft 148 kts 325°
2026-04-24 19:07 54.82246 8.45264 2111 ft 135 kts 326°
2026-04-24 19:07 54.82985 8.44353 1935 ft 125 kts 326°
2026-04-24 19:07 54.83675 8.43503 1767 ft 121 kts 326°
2026-04-24 19:08 54.84358 8.42660 1596 ft 119 kts 326°
2026-04-24 19:08 54.85034 8.41827 1423 ft 118 kts 325°
2026-04-24 19:08 54.85695 8.41011 1264 ft 118 kts 325°
2026-04-24 19:08 54.86363 8.40185 1099 ft 118 kts 324°
2026-04-24 19:09 54.87033 8.39358 926 ft 118 kts 324°
2026-04-24 19:09 54.87696 8.38539 755 ft 118 kts 324°
2026-04-24 19:09 54.88368 8.37708 580 ft 118 kts 326°
2026-04-24 19:09 54.89031 8.36887 419 ft 119 kts 326°
2026-04-24 19:10 54.89706 8.36051 252 ft 118 kts 326°
2026-04-24 19:10 54.90379 8.35221 66 ft 116 kts 325°
2026-04-24 19:10 54.90950 8.34509 42 ft 72 kts 325°
2026-04-24 19:10 54.91237 8.34153 41 ft 34 kts 324°
2026-04-24 19:11 54.91303 8.33992 41 ft 14 kts 248°
2026-04-24 19:11 54.91247 8.33821 39 ft 19 kts 239°
2026-04-24 19:11 54.91178 8.33617 38 ft 21 kts 239°
2026-04-24 19:11 54.91102 8.33392 38 ft 22 kts 239°
2026-04-24 19:12 54.91049 8.33227 38 ft 9 kts 252°
2026-04-24 19:12 54.91088 8.33173 39 ft 8 kts 10°
2026-04-24 19:12 54.91162 8.33180 39 ft 13 kts
2026-04-24 19:12 54.91253 8.33179 40 ft 12 kts
2026-04-24 19:13 54.91304 8.33214 38 ft 12 kts 29°
2026-04-24 19:13 54.91378 8.33233 40 ft 5 kts 316°
2026-04-24 19:13 54.91386 8.33167 40 ft 7 kts 271°
2026-04-24 19:13 54.91386 8.33128 40 ft 0 kts 270°